Location: Kapuskasing
(49.3803°N, 82.4001°W)
Time: 11:18:25
(UTC-04:00)

RS-44 - Pass Details

Date: 19 March 2026
Orbit: 1175 x 1510 km, 82.5° (Epoch: 11 April)

Event Time Altitude Azimuth Distance (km) Brightness Sun altitude
Rises 06:22:45 0° 337° (NNW) 4,465 ? -12.4°
Reaches altitude 10° 06:29:44 10° 297° (WNW) 3,576 ? -11.3°
Maximum altitude 06:30:15 10° 293° (WNW) 3,577 ? -11.2°
Drops below altitude 10° 06:30:46 10° 290° (WNW) 3,587 ? -11.1°
Enters shadow 06:31:58 - 282° (WNW) 3,649 ? -10.9°
